When you browse on this site, cookies collect data to enhance your experience and personalize the content and advertising you see.
Visit our Privacy Policy to learn more. By continuing to use the site, you agree to this use of cookies and data.
  • In Hungary
  • List of Countries
  • For 7 days
  • Water Temperature
  • Weather Map
  • News
  • Weather Widgets
  • user-avatar
    Login

    Hourly Weather Holupovka

    Today, 29 January, Wednesday

    Time Temperature Precipitation Wind Pressure Humidity
    00:00 -1°C° 0 mm 3 mps 738 mmHg 89%
    01:00 -1°C° 0 mm 3 mps 738 mmHg 90%
    02:00 -2°C° 0 mm 2 mps 738 mmHg 91%
    03:00 -2°C° 0 mm 3 mps 737 mmHg 92%
    04:00 -2°C° 0 mm 3 mps 737 mmHg 93%
    05:00 -3°C° 0 mm 4 mps 737 mmHg 94%
    06:00 -3°C° 0 mm 4 mps 737 mmHg 93%
    07:00 -3°C° 0 mm 4 mps 737 mmHg 92%
    08:00 -2°C° 0 mm 3 mps 737 mmHg 91%
    09:00 -2°C° 0 mm 4 mps 737 mmHg 88%
    10:00 -2°C° 0 mm 4 mps 736 mmHg 85%
    11:00 -1°C° 0 mm 4 mps 736 mmHg 83%
    12:00 -1°C° 0 mm 4 mps 736 mmHg 86%
    13:00 -1°C° 0 mm 4 mps 736 mmHg 89%
    14:00 -1°C° 0 mm 4 mps 735 mmHg 91%
    15:00 -1°C° 0 mm 4 mps 735 mmHg 93%
    16:00 -1°C° 0 mm 4 mps 734 mmHg 95%
    17:00 -1°C° 0 mm 5 mps 734 mmHg 96%
    18:00 -1°C° 0 mm 4 mps 734 mmHg 95%
    19:00 -1°C° 0 mm 4 mps 734 mmHg 94%
    20:00 -1°C° 0 mm 4 mps 734 mmHg 93%
    21:00 -1°C° 0.1 mm 4 mps 733 mmHg 94%
    22:00 -1°C° 0.1 mm 4 mps 732 mmHg 96%
    23:00 -1°C° 0.1 mm 4 mps 732 mmHg 97%

    Tomorrow, 30 January, Thursday

    Time Temperature Precipitation Wind Pressure Humidity
    00:00 -1°C° 0.1 mm 4 mps 731 mmHg 97%
    01:00 -1°C° 0.1 mm 5 mps 731 mmHg 96%
    02:00 0°C° 0.1 mm 5 mps 731 mmHg 96%
    03:00 -1°C° 0.1 mm 5 mps 730 mmHg 96%
    04:00 -1°C° 0.1 mm 5 mps 729 mmHg 96%
    05:00 -2°C° 0.1 mm 6 mps 729 mmHg 96%
    06:00 -2°C° 0.5 mm 6 mps 729 mmHg 96%
    07:00 -2°C° 0.5 mm 6 mps 728 mmHg 96%
    08:00 -1°C° 0.5 mm 5 mps 728 mmHg 97%
    09:00 -1°C° 0.5 mm 5 mps 728 mmHg 97%
    10:00 -1°C° 0.5 mm 5 mps 728 mmHg 97%
    11:00 -1°C° 0.5 mm 5 mps 727 mmHg 97%
    12:00 -1°C° 0.6 mm 5 mps 727 mmHg 96%
    13:00 -1°C° 0.6 mm 4 mps 728 mmHg 95%
    14:00 -2°C° 0.6 mm 4 mps 728 mmHg 95%
    15:00 -1°C° 0.2 mm 3 mps 728 mmHg 94%
    16:00 -1°C° 0.2 mm 3 mps 728 mmHg 94%
    17:00 -1°C° 0.2 mm 3 mps 728 mmHg 94%
    18:00 -2°C° 0 mm 3 mps 729 mmHg 94%
    19:00 -2°C° 0 mm 2 mps 729 mmHg 95%
    20:00 -2°C° 0 mm 2 mps 730 mmHg 95%
    21:00 -2°C° 0 mm 2 mps 730 mmHg 94%
    22:00 -2°C° 0 mm 2 mps 730 mmHg 94%
    23:00 -2°C° 0 mm 2 mps 731 mmHg 93%

    Day after tomorrow, 31 January, Friday

    Time Temperature Precipitation Wind Pressure Humidity
    00:00 -2°C° 0 mm 2 mps 731 mmHg 93%
    01:00 -2°C° 0 mm 2 mps 731 mmHg 93%
    02:00 -2°C° 0 mm 2 mps 732 mmHg 92%
    03:00 -2°C° 0.1 mm 2 mps 732 mmHg 93%
    04:00 -2°C° 0.1 mm 2 mps 732 mmHg 94%
    05:00 -2°C° 0.1 mm 2 mps 732 mmHg 95%
    06:00 -2°C° 0.1 mm 2 mps 732 mmHg 95%
    07:00 -2°C° 0.1 mm 2 mps 733 mmHg 95%
    08:00 -2°C° 0.1 mm 2 mps 733 mmHg 96%
    09:00 -2°C° 0.1 mm 2 mps 733 mmHg 94%
    10:00 -2°C° 0.1 mm 2 mps 733 mmHg 93%
    11:00 -1°C° 0.1 mm 2 mps 733 mmHg 92%
    12:00 -1°C° 0.1 mm 2 mps 733 mmHg 91%
    13:00 -1°C° 0.1 mm 2 mps 733 mmHg 90%
    14:00 -1°C° 0.1 mm 2 mps 733 mmHg 89%
    15:00 -1°C° 0 mm 2 mps 733 mmHg 91%
    16:00 +1°C° 0 mm 1 mps 734 mmHg 92%
    17:00 +1°C° 0 mm 1 mps 734 mmHg 93%
    18:00 +1°C° 0 mm 1 mps 734 mmHg 93%
    19:00 0°C° 0 mm 1 mps 735 mmHg 92%
    20:00 0°C° 0 mm 1 mps 735 mmHg 91%
    21:00 0°C° 0 mm 1 mps 736 mmHg 92%
    22:00 0°C° 0 mm 1 mps 736 mmHg 92%
    23:00 0°C° 0 mm 1 mps 736 mmHg 92%

    1 February, Saturday

    Time Temperature Precipitation Wind Pressure Humidity
    00:00 0°C° 0 mm 1 mps 736 mmHg 92%
    01:00 0°C° 0 mm 1 mps 737 mmHg 93%
    02:00 -1°C° 0 mm 0 mps 737 mmHg 93%
    03:00 0°C° 0 mm 1 mps 737 mmHg 93%
    04:00 0°C° 0 mm 1 mps 738 mmHg 92%
    05:00 0°C° 0 mm 1 mps 738 mmHg 92%
    06:00 0°C° 0 mm 1 mps 738 mmHg 92%
    07:00 0°C° 0 mm 1 mps 739 mmHg 92%
    08:00 -1°C° 0 mm 0 mps 739 mmHg 92%
    09:00 0°C° 0 mm 1 mps 739 mmHg 89%
    10:00 +1°C° 0 mm 1 mps 739 mmHg 85%
    11:00 -1°C° 0 mm 2 mps 739 mmHg 82%
    12:00 -1°C° 0 mm 2 mps 739 mmHg 80%
    13:00 -1°C° 0 mm 2 mps 739 mmHg 78%
    14:00 -1°C° 0 mm 3 mps 739 mmHg 76%
    15:00 -1°C° 0 mm 3 mps 739 mmHg 80%
    16:00 -2°C° 0 mm 3 mps 739 mmHg 83%
    17:00 -2°C° 0 mm 2 mps 739 mmHg 87%
    18:00 -2°C° 0 mm 3 mps 738 mmHg 88%
    19:00 -3°C° 0 mm 4 mps 738 mmHg 89%
    20:00 -4°C° 0 mm 5 mps 738 mmHg 90%
    21:00 -4°C° 0 mm 5 mps 738 mmHg 91%
    22:00 -4°C° 0 mm 5 mps 737 mmHg 92%
    23:00 -2°C° 0 mm 5 mps 737 mmHg 93%

    2 February, Sunday

    Time Temperature Precipitation Wind Pressure Humidity
    00:00 -2°C° 0.2 mm 5 mps 736 mmHg 94%
    01:00 -1°C° 0.2 mm 5 mps 736 mmHg 95%
    02:00 0°C° 0.2 mm 5 mps 736 mmHg 96%
    03:00 0°C° 0.2 mm 5 mps 735 mmHg 96%
    04:00 0°C° 0.2 mm 5 mps 734 mmHg 96%
    05:00 -1°C° 0.2 mm 6 mps 734 mmHg 95%
    06:00 -1°C° 0.3 mm 6 mps 733 mmHg 96%
    07:00 -1°C° 0.3 mm 6 mps 733 mmHg 96%
    08:00 0°C° 0.3 mm 5 mps 733 mmHg 97%
    09:00 0°C° 0.4 mm 5 mps 733 mmHg 96%
    10:00 +1°C° 0.4 mm 5 mps 732 mmHg 96%
    11:00 +1°C° 0.4 mm 5 mps 732 mmHg 96%
    12:00 +1°C° 0.5 mm 5 mps 732 mmHg 96%
    13:00 +1°C° 0.5 mm 5 mps 732 mmHg 97%
    14:00 +1°C° 0.5 mm 4 mps 733 mmHg 97%
    15:00 +1°C° 0 mm 4 mps 733 mmHg 94%
    16:00 0°C° 0 mm 4 mps 733 mmHg 92%
    17:00 0°C° 0 mm 4 mps 733 mmHg 89%
    18:00 0°C° 0 mm 4 mps 734 mmHg 89%
    19:00 -1°C° 0 mm 4 mps 734 mmHg 89%
    20:00 -1°C° 0 mm 4 mps 734 mmHg 90%
    21:00 -1°C° 0 mm 5 mps 734 mmHg 89%
    22:00 -1°C° 0 mm 5 mps 734 mmHg 89%
    23:00 0°C° 0 mm 5 mps 734 mmHg 88%

    3 February, Monday

    Time Temperature Precipitation Wind Pressure Humidity
    00:00 0°C° 0.2 mm 5 mps 734 mmHg 91%
    01:00 0°C° 0.2 mm 5 mps 733 mmHg 93%
    02:00 0°C° 0.2 mm 5 mps 733 mmHg 95%
    03:00 -1°C° 0.1 mm 5 mps 733 mmHg 96%
    04:00 -1°C° 0.1 mm 5 mps 733 mmHg 96%
    05:00 -2°C° 0.1 mm 5 mps 733 mmHg 97%
    06:00 -2°C° 0.1 mm 5 mps 733 mmHg 94%
    07:00 -2°C° 0.1 mm 5 mps 733 mmHg 91%
    08:00 -2°C° 0.1 mm 4 mps 734 mmHg 89%
    09:00 -1°C° 0 mm 5 mps 734 mmHg 87%
    10:00 -1°C° 0 mm 5 mps 734 mmHg 85%
    11:00 -1°C° 0 mm 5 mps 734 mmHg 83%
    12:00 -1°C° 0 mm 5 mps 734 mmHg 83%
    13:00 -1°C° 0 mm 5 mps 734 mmHg 83%
    14:00 -1°C° 0 mm 4 mps 734 mmHg 82%
    15:00 -1°C° 0 mm 4 mps 735 mmHg 82%
    16:00 -1°C° 0 mm 4 mps 735 mmHg 82%
    17:00 -1°C° 0 mm 4 mps 735 mmHg 82%
    18:00 -1°C° 0 mm 4 mps 736 mmHg 82%
    19:00 -1°C° 0 mm 4 mps 736 mmHg 82%
    20:00 -1°C° 0 mm 4 mps 736 mmHg 82%
    21:00 -2°C° 0 mm 4 mps 737 mmHg 84%
    22:00 -2°C° 0 mm 4 mps 737 mmHg 85%
    23:00 -3°C° 0 mm 4 mps 738 mmHg 87%
    Show more